www.pogodaiklimat.ru

АРХИВ ПОГОДЫ в Makkah

Время (UTC), дата Ветер
(напр.,м/с)
 
Видим.   Явления Облачность Т
(С)
Тd
(С)
f
(%)
Тe
(С)
Тes
(С)
Комфортность P
(гПа)
Po
(гПа)
Тmin
(С)
Tmax
(С)
R
(мм)
S
(см)
12 6.01 ЮЗ 3 10 км 3/0
[Ci fib]
+31.8 +16.0 39 +35 +40 очень
душно
1011.5 984.8
15 6.01 ЮЗ 2 10 км ясно +28.0 +19.0 58 +33 +33 очень
душно
1012.5 985.5
18 6.01 З 2 10 км 3/0
[Ac trans]
+25.4 +20.0 72 +31 +31 очень
душно
1014.3 987.0 +32.0
06 7.01 штиль 0 10 км ясно +21.6 +19.0 85 +26 +32 душно 1015.7 988.1 +20.0
09 7.01 З 2 10 км ясно +30.6 +20.0 53 +37 +48 очень
душно
1013.8 987.0
12 7.01 З 2 10 км 3/1 1200 м
[Cu hum Ci fib]
+31.8 +17.0 41 +35 +40 очень
душно
1011.3 984.6
15 7.01 Ю 5 10 км 4/0
[Ci fib]
+29.4 +17.0 47 +33 +33 душно 1011.6 984.7
18 7.01 штиль 0 10 км ясно +26.2 +19.0 65 +31 +31 очень
душно
1013.7 986.4 +32.2
06 8.01 штиль 0 10 км ясно +24.0 +19.0 74 +29 +34 душно 1013.5 986.5 +21.4
09 8.01 штиль 0 10 км ясно +30.4 +17.0 45 +34 +50 очень
душно
1012.0 985.4
12 8.01 ЮЗ 4 10 км ясно +32.4 +16.0 37 +35 +39 душно 1009.6 983.0
15 8.01 ЮЗ 2 10 км 4/0
[Ci sp]
+29.6 +16.0 44 +33 +33 душно 1010.2 983.4
18 8.01 СВ 1 10 км ясно +24.2 +18.0 68 +28 +28 душно 1012.8 985.6 +33.0
00 9.01 штиль 0 10 км ясно +21.8 +16.0 70 +26 +26 душно 1012.5 985.2
06 9.01 С 1 10 км 5/0
[Ci sp]
+20.6 +15.0 70 +25 +29 комфорт 1013.9 986.8 +19.4
09 9.01 С 1 10 км 5/0
[Ci sp]
+25.6 +13.0 46 +28 +40 жарко 1013.1 986.3
12 9.01 штиль 0 10 км 4/0
[Ci sp]
+28.3 +13.0 39 +30 +38 жарко 1011.2 984.3
15 9.01 штиль 0 10 км 4/0
[Ci sp]
+28.3 +13.0 39 +30 +30 жарко 1011.2 984.3
18 9.01 штиль 0 10 км 5/0
[Ci sp]
+21.6 +14.0 62 +24 +24 комфорт 1014.7 987.2 +29.0
09 10.01 Ю 3 10 км ясно +29.0 +15.0 43 +32 +41 душно 1012.3 985.3
12 10.01 ЮЗ 5 8000 м пыль ясно +31.4 +15.0 37 +34 +37 душно 1010.9 984.0
15 10.01 ЮЗ 2 10 км ясно +28.0 +17.0 51 +32 +32 душно 1012.3 985.1
18 10.01 штиль 0 10 км ясно +24.8 +18.0 66 +29 +29 душно 1014.8 987.3 +32.0
00 11.01 штиль 0 10 км ясно +21.5 +15.0 66 +25 +25 комфорт 1015.0 987.4
06 11.01 штиль 0 10 км 3/0
[Ci fib]
+19.9 +17.0 83 +22 +27 комфорт 1015.7 987.9 +18.0
09 11.01 З 2 10 км 1/0
[Ci fib]
+30.4 +13.0 34 +31 +43 жарко 1015.0 988.1
12 11.01 штиль 0 10 км 5/0
[Ci fib]
+33.2 +14.0 31 +34 +42 очень
жарко
1012.9 986.2
15 11.01 СЗ 3 10 км 8/0
[Ci sp]
+30.6 +18.0 47 +35 +35 очень
душно
1014.4 987.4
18 11.01 штиль 0 10 км 8/0
[Cs]
+25.6 +18.0 63 +30 +30 душно 1016.8 989.3 +34.0
06 12.01 штиль 0 10 км ясно +21.0 +18.0 83 +25 +30 комфорт 1016.4 988.7 +19.0
09 12.01 ЮЗ 1 10 км ясно +31.4 +18.0 45 +36 +50 очень
душно
1014.8 988.1
12 12.01 ЮЗ 2 10 км ясно +34.0 +15.0 32 +36 +42 душно 1012.8 986.2
15 12.01 СЗ 2 10 км 4/0
[Ci fib]
+29.9 +19.0 52 +35 +35 очень
душно
1013.3 986.3
18 12.01 СЗ 2 10 км ясно +25.1 +20.0 73 +31 +31 очень
душно
1015.8 988.4 +35.0
00 13.01 штиль 0 10 км ясно +22.0 +17.0 73 +26 +26 душно 1014.3 987.0
06 13.01 штиль 0 10 км 3/0
[Ci fib]
+21.6 +19.0 85 +26 +32 душно 1014.8 987.2 +20.0
09 13.01 Ю 1 10 км 1/0
[Ci fib]
+29.8 +19.0 52 +35 +49 очень
душно
1012.9 986.1
12 13.01 СЗ 2 10 км 3/0
[Ci fib]
+32.6 +17.0 39 +36 +42 очень
душно
1010.5 983.9
15 13.01 СЗ 2 10 км 6/0
[Ci fib]
+30.2 +18.0 48 +35 +35 очень
душно
1010.3 983.4
18 13.01 штиль 0 10 км ясно +26.2 +19.0 65 +31 +31 очень
душно
1011.7 984.5 +33.4
00 14.01 штиль 0 10 км ясно +23.2 +17.0 68 +28 +28 душно 1011.8 984.7
06 14.01 штиль 0 10 км ясно +23.2 +18.0 73 +29 +34 душно 1011.8 984.4 +21.1
09 14.01 Ю 2 10 км 5/0
[Ci sp]
+30.8 +18.0 46 +35 +46 очень
душно
1010.2 983.5
12 14.01 З 3 10 км ясно +33.0 +18.0 41 +37 +42 очень
душно
1007.5 981.0
15 14.01 ЮЗ 3 10 км 5/0
[Ci sp]
+29.0 +19.0 55 +34 +34 очень
душно
1009.0 982.1
18 14.01 штиль 0 10 км ясно +26.2 +20.0 69 +32 +32 очень
душно
1010.4 983.3 +33.8
06 15.01 штиль 0 7000 м дымка ясно +22.8 +22.0 95 +31 +36 очень
душно
1011.1 984.2 +22.0
09 15.01 Ю 4 10 км 3/0
[Ci fib]
+31.6 +14.0 34 +33 +40 жарко 1010.1 983.6
12 15.01 Ю 6 8000 м пыль 3/0
[Ci fib]
+34.6 +15.0 31 +36 +39 душно 1008.7 982.2
15 15.01 Ю 3 10 км 5/0
[Ci fib]
+30.6 +17.0 44 +34 +34 очень
душно
1010.2 983.4
18 15.01 ЮЗ 2 10 км 3/0
[Ci fib]
+27.0 +20.0 66 +33 +33 очень
душно
1012.4 985.2 +35.0
00 16.01 штиль 0 10 км ясно +24.6 +19.0 71 +30 +30 очень
душно
1012.2 985.0
06 16.01 штиль 0 10 км 6/0
[Ci sp]
+23.0 +19.0 78 +29 +34 очень
душно
1014.0 986.6 +20.6
09 16.01 СЗ 1 10 км 5/0
[Ci fib]
+32.0 +17.0 41 +36 +48 очень
душно
1012.1 985.5
12 16.01 ЮЗ 1 10 км 3/0
[Ci fib]
+34.4 +16.0 33 +37 +44 очень
душно
1009.7 983.4
15 16.01 СЗ 1 10 км 1/0
[Ci fib]
+32.0 +17.0 41 +36 +36 очень
душно
1010.7 984.2

 

Местоположение метеостанции Makkah (Саудовская Аравия): широта 21.43 долгота 39.77 высота над уровнем моря 240 м.

В архиве по умолчанию представлена погода в Makkah за последнюю неделю. Архивные данные за месяц целиком и за предыдущие месяцы, начиная с января 2011 года, Вы можете получить, выбрав интересующий диапазон дат из раскрывающегося списка и нажав кнопку "Ввод!".

Внимание! Время в таблицах - всемирное. Для получения местного времени необходимо прибавить поправку, которая в Makkah равна 3 ч.

Ветер - указаны скорость ветра в м/с - средняя за 10 мин, порывы в срок и между сроками (в фигурных скобках) и направление, откуда дует ветер: С - северный, СВ - северо-восточный, В - восточный, ЮВ - юго-восточный, Ю - южный, ЮЗ - юго-западный, З - западный, СЗ - северо-западный.
Видимость - горизонтальная дальность видимости в метрах или километрах. При видимости от 1 до 10 км при отсутствии осадков обычно наблюдается дымка, при ухудшении видимости до 1 км и менее - туман. В сухую погоду видимость может ухудшаться дымом, пылью или мглою.
Явления - указаны атмосферные явления, наблюдавшиеся в срок или в последний час перед сроком; фигурными скобками обозначены явления, наблюдавшиеся между сроками (за 1-3 часа до срока); квадратными скобками обозначены град или гололедные отложения с указанием их диаметра в мм.
Облачность - указаны через наклонную черту общая и нижняя облачность в баллах и высота нижней границы облаков в метрах; квадратными скобками обозначены формы облаков: Ci - перистые, Cs - перисто-слоистые, Cc - перисто-кучевые, Ac - высококучевые, As - высокослоистые, Sc - слоисто-кучевые, Ns - слоисто-дождевые, Cu - кучевые, Cb - кучево-дождевые. Подробнее классификацию облаков см. в Атласе облаков (PDF).
T - Температура воздуха - температура, измеренная на высоте 2 м над землей.
Td - Температура точки росы - температура, при понижении до которой содержащийся в воздухе водяной пар достигнет насыщения.
f - Относительная влажность воздуха - влажноcть воздуха, измеренная на высоте 2 м над землей.
Te - Эффективная температура - температура, которую ощущает одетый по сезону человек в тени. Характеристика душности погоды. При расчете учитывается влияние влажности воздуха и скорости ветра на теплоощущения человека.
Tes - Эффективная температура на солнце - температура, которую ощущает человек, с поправкой на солнечный нагрев. Характеристика знойности погоды. Зависит от высоты солнца над горизонтом, облачности и скорости ветра. Ночью, в пасмурную погоду, а также при ветре 12 м/с и более поправка равна нулю.
P - Атмосферное давление - приведенное к уровню моря атмосферное давление.
Po - Атмосферное давление - измеренное на уровне метеостанции атмосферное давление.
Tmin - Минимальная температура - минимум температуры воздуха на высоте 2 м над землей.
Tmax - Максимальная температура - максимум температуры воздуха на высоте 2 м над землей.
R - Количество осадков - Количество выпавших осадков, мм. При наведении курсора мыши на число - период времени, за который выпало указанное количество осадков.
S - Снежный покров - Высота снежного покрова, см. При наведении курсора мыши на число - состояние снежного покрова и степень покрытия местности в баллах.